Weather History for Saguache, CO

Change the Weather History Date:

Monday, August 18, 2014

  Actual Average (KALS) Record (KALS)
Temperature  
Mean Temperature 65 °F 63 °F  
Max Temperature 80 °F 79 °F 90 °F (2002)
Min Temperature 50 °F 46 °F 35 °F (1960)
Degree Days  
Heating Degree Days 0 3  
Month to date heating degree days 35  
Since 1 June heating degree days 248  
Since 1 July heating degree days 80  
Cooling Degree Days 0 0  
Month to date cooling degree days 12  
Year to date cooling degree days 50  
Since 1 June cooling degree days 50  
Growing Degree Days 15 (Base 50)    
Moisture  
Dew Point 41 °F    
Average Humidity 47    
Maximum Humidity 87    
Minimum Humidity 20    
Precipitation  
Precipitation 0.00 in 0.05 in 0.75 in (1999)
Month to date precipitation 0.74  
Year to date precipitation 4.42  
Snow  
Snow 0.00 in 0.00 in 0.00 in (2002)
Month to date snowfall 0.0  
Since 1 June snowfall 0.0  
Since 1 July snowfall 0.0  
Snow Depth -    
Sea Level Pressure  
Sea Level Pressure 30.32 in    
Wind  
Wind Speed 7 mph (West)    
Max Wind Speed 18 mph    
Max Gust Speed 26 mph    
Visibility 10 miles    
Events Thunderstorm    
T = Trace of Precipitation, MM = Missing Value Source: NWS Daily Summary

Daily Weather History Graph

Daily Weather History Graph

Search for Another Location

Airport:

Trip Planner

Search our weather history database for the weather conditions in past years. The results will help you decide how hot, cold, wet, or windy it might be!

Date:

Astronomy

Aug. 18, 2014 Rise Set
Actual Time 6:22 AM MDT 7:54 PM MDT
Civil Twilight 5:54 AM MDT 8:21 PM MDT
Nautical Twilight 5:20 AM MDT 8:55 PM MDT
Astronomical Twilight 4:45 AM MDT 9:30 PM MDT
Moon 12:32 AM MDT (8/18) 2:58 PM MDT (8/18)
Length of Visible Light 14h 27m
Length of Day
13h 31m
Last Quarter, 38% of the Moon is Illuminated
Aug 18
Last Quarter
Aug 25
New
Sep 2
First Quarter
Sep 8
Full
Sep 15
Last Quarter

Hourly Weather History & Observations

Time (MDT) Temp. Dew Point Humidity Pressure Visibility Wind Dir Wind Speed Gust Speed Precip Events Conditions
12:15 AM 53.6 °F 44.6 °F 72% 30.39 in 10.0 mi NNW 6.9 mph - N/A   Clear
12:34 AM 50.0 °F 46.4 °F 87% 30.39 in 10.0 mi NNW 3.5 mph - N/A   Clear
12:54 AM 50.0 °F 46.4 °F 87% 30.38 in 10.0 mi North 4.6 mph - N/A   Clear
1:13 AM 50.0 °F 46.4 °F 87% 30.38 in 10.0 mi NNW 9.2 mph - N/A   Clear
1:35 AM 50.0 °F 44.6 °F 82% 30.38 in 10.0 mi NNW 8.1 mph - N/A   Clear
1:55 AM 50.0 °F 42.8 °F 76% 30.37 in 10.0 mi NNW 10.4 mph - N/A   Scattered Clouds
2:14 AM 51.8 °F 42.8 °F 71% 30.36 in 10.0 mi NNW 10.4 mph - N/A   Scattered Clouds
2:32 AM 51.8 °F 42.8 °F 71% 30.36 in 10.0 mi NNW 10.4 mph - N/A   Scattered Clouds
2:50 AM 50.0 °F 42.8 °F 76% 30.36 in 10.0 mi NNW 11.5 mph - N/A   Scattered Clouds
3:15 AM 51.8 °F 42.8 °F 71% 30.35 in 10.0 mi North 9.2 mph - N/A   Scattered Clouds
3:24 AM 51.8 °F 42.8 °F 71% 30.35 in 10.0 mi NW 11.5 mph 16.1 mph N/A   Scattered Clouds
3:49 AM 51.8 °F 41.0 °F 67% 30.35 in 10.0 mi NNW 11.5 mph - N/A   Scattered Clouds
4:07 AM 51.8 °F 41.0 °F 67% 30.35 in 10.0 mi NNW 12.7 mph - N/A   Scattered Clouds
4:35 AM 53.6 °F 41.0 °F 62% 30.35 in 10.0 mi NNW 9.2 mph - N/A   Mostly Cloudy
4:46 AM 53.6 °F 41.0 °F 62% 30.35 in 10.0 mi WNW 9.2 mph - N/A   Scattered Clouds
5:10 AM 51.8 °F 41.0 °F 67% 30.36 in 10.0 mi NNW 18.4 mph 26.5 mph N/A   Scattered Clouds
5:35 AM 51.8 °F 41.0 °F 67% 30.36 in 10.0 mi North 12.7 mph - N/A   Clear
5:52 AM 51.8 °F 41.0 °F 67% 30.37 in 10.0 mi WSW 5.8 mph - N/A   Clear
6:15 AM 50.0 °F 41.0 °F 71% 30.36 in 10.0 mi West 4.6 mph - N/A   Clear
6:30 AM 50.0 °F 41.0 °F 71% 30.36 in 10.0 mi WNW 8.1 mph - N/A   Clear
6:55 AM 50.0 °F 41.0 °F 71% 30.37 in 10.0 mi NNW 5.8 mph - N/A   Clear
7:12 AM 51.8 °F 41.0 °F 67% 30.38 in 10.0 mi SSE 6.9 mph - N/A   Clear
7:35 AM 55.4 °F 41.0 °F 58% 30.39 in 10.0 mi WSW 4.6 mph - N/A   Clear
7:53 AM 55.4 °F 41.0 °F 58% 30.39 in 10.0 mi SE 4.6 mph - N/A   Clear
8:14 AM 59.0 °F 41.0 °F 51% 30.39 in 10.0 mi Calm Calm - N/A   Clear
8:32 AM 59.0 °F 42.8 °F 55% 30.39 in 10.0 mi Calm Calm - N/A   Clear
8:55 AM 60.8 °F 41.0 °F 48% 30.39 in 10.0 mi SE 3.5 mph - N/A   Clear
9:15 AM 62.6 °F 41.0 °F 45% 30.39 in 10.0 mi Calm Calm - N/A   Clear
9:32 AM 64.4 °F 42.8 °F 45% 30.38 in 10.0 mi Calm Calm - N/A   Clear
9:54 AM 64.4 °F 44.6 °F 49% 30.37 in 10.0 mi Calm Calm - N/A   Clear
10:12 AM 66.2 °F 44.6 °F 46% 30.37 in 10.0 mi SSE 4.6 mph - N/A   Clear
10:35 AM 68.0 °F 42.8 °F 40% 30.37 in 10.0 mi SSE 3.5 mph - N/A   Clear
10:55 AM 69.8 °F 42.8 °F 38% 30.37 in 10.0 mi SE 3.5 mph - N/A   Clear
11:14 AM 69.8 °F 42.8 °F 38% 30.36 in 10.0 mi South 5.8 mph - N/A   Clear
11:35 AM 71.6 °F 41.0 °F 33% 30.36 in 10.0 mi South 8.1 mph - N/A   Clear
11:54 AM 71.6 °F 42.8 °F 35% 30.35 in 10.0 mi South 8.1 mph - N/A   Clear
12:15 PM 71.6 °F 41.0 °F 33% 30.34 in 10.0 mi SSE 4.6 mph - N/A Thunderstorm Clear
12:26 PM 73.4 °F 41.0 °F 31% 30.34 in 10.0 mi South 6.9 mph - N/A Thunderstorm Clear
12:54 PM 75.2 °F 42.8 °F 31% 30.32 in 10.0 mi SSE 6.9 mph - N/A   Clear
1:14 PM 73.4 °F 42.8 °F 33% 30.31 in 10.0 mi South 5.8 mph - N/A   Clear
1:34 PM 71.6 °F 42.8 °F 35% 30.31 in 10.0 mi Calm Calm - N/A Thunderstorm Scattered Clouds
1:53 PM 71.6 °F 42.8 °F 35% 30.31 in 10.0 mi SSW 3.5 mph - N/A   Scattered Clouds
2:14 PM 73.4 °F 42.8 °F 33% 30.29 in 10.0 mi WSW 4.6 mph - N/A   Clear
2:34 PM 77.0 °F 42.8 °F 29% 30.28 in 10.0 mi SSE 4.6 mph - N/A   Clear
2:53 PM 78.8 °F 42.8 °F 28% 30.27 in 10.0 mi South 5.8 mph - N/A   Clear
3:13 PM 78.8 °F 33.8 °F 20% 30.26 in 10.0 mi Calm Calm - N/A   Clear
3:32 PM 78.8 °F 35.6 °F 21% 30.25 in 10.0 mi SE 4.6 mph - N/A   Clear
3:55 PM 80.6 °F 37.4 °F 21% 30.23 in 10.0 mi South 9.2 mph - N/A   Clear
4:15 PM 78.8 °F 37.4 °F 23% 30.23 in 10.0 mi South 3.5 mph - N/A   Clear
4:32 PM 77.0 °F 39.2 °F 26% 30.22 in 10.0 mi SSE 5.8 mph - N/A Thunderstorm Clear
4:54 PM 77.0 °F 37.4 °F 24% 30.23 in 10.0 mi SSE 8.1 mph - N/A   Clear
5:04 PM 77.0 °F 35.6 °F 22% 30.23 in 10.0 mi SSE 8.1 mph - N/A   Scattered Clouds
5:35 PM 78.8 °F 33.8 °F 20% 30.22 in 10.0 mi East 13.8 mph - N/A   Mostly Cloudy
5:53 PM 77.0 °F 33.8 °F 21% 30.22 in 10.0 mi ENE 12.7 mph 18.4 mph N/A   Scattered Clouds
6:10 PM 77.0 °F 35.6 °F 22% 30.21 in 10.0 mi ENE 15.0 mph 19.6 mph N/A   Scattered Clouds
6:30 PM 78.8 °F 35.6 °F 21% 30.21 in 10.0 mi ENE 10.4 mph - N/A   Clear
6:52 PM 73.4 °F 35.6 °F 25% 30.21 in 10.0 mi ENE 5.8 mph - N/A   Clear
7:09 PM 73.4 °F 37.4 °F 27% 30.21 in 10.0 mi Calm Calm - N/A   Mostly Cloudy
7:29 PM 71.6 °F 37.4 °F 29% 30.21 in 10.0 mi NE 5.8 mph - N/A   Overcast
7:52 PM 69.8 °F 39.2 °F 33% 30.22 in 10.0 mi West 3.5 mph - N/A Thunderstorm Overcast
8:15 PM 69.8 °F 41.0 °F 35% 30.25 in 10.0 mi WNW 3.5 mph - N/A Thunderstorm Thunderstorm
8:35 PM 68.0 °F 37.4 °F 33% 30.29 in 7.0 mi North 8.1 mph 23.0 mph N/A Thunderstorm Thunderstorm
8:50 PM 64.4 °F 41.0 °F 42% 30.30 in 7.0 mi NW 12.7 mph 21.9 mph N/A   Overcast
9:15 PM 68.0 °F 39.2 °F 35% 30.30 in 10.0 mi SE 5.8 mph - N/A   Overcast
9:34 PM 64.4 °F 42.8 °F 45% 30.29 in 10.0 mi ESE 6.9 mph - N/A   Mostly Cloudy
10:06 PM 64.4 °F 41.0 °F 42% 30.29 in 10.0 mi NNE 5.8 mph - N/A   Scattered Clouds
10:35 PM 60.8 °F 42.8 °F 52% 30.29 in 10.0 mi WNW 4.6 mph - N/A   Clear
10:55 PM 60.8 °F 42.8 °F 52% 30.29 in 10.0 mi Calm Calm - N/A   Clear
11:15 PM 60.8 °F 44.6 °F 55% 30.29 in 10.0 mi ENE 4.6 mph - N/A   Scattered Clouds
11:34 PM 60.8 °F 42.8 °F 52% 30.29 in 10.0 mi East 9.2 mph - N/A   Scattered Clouds